Погода в Щелкуне

Россия / Свердловская область     56°18′09″N   60°56′54″E
темп.,
°C
ветер,
м/с
пор.,
м/с
влажн.,
%
обл.,
%
осадки,
мм/ч
давл.,
гПа
погр.,
м
14 апреля, ср
ср1423:00+8юз349236 0.0 103570
02:00+7зюз2895100 0.0 1033177
05:00+7зюз3995100 0.0 1033216
08:00+9з389179 0.0 1033314
11:00+14з357235 0.0 1032496
14:00+17з35599 0.0 1030771
17:00+17з34605 0.0 1029877
20:00+12з228212 0.0 102819
15 апреля, чт
чт1523:00+10з228857 0.0 102811
02:00+9з228744 0.0 102710
05:00+8з228751 0.0 102715
08:00+10зюз27838 0.0 1026189
11:00+16зюз46525 0.0 1024810
14:00+18зюз57375 0.0 10221183
17:00+18з58425 0.0 10211257
20:00+12зюз35685 0.0 102073
16 апреля, пт
пт1623:00+9з398112 0.0 1020171
02:00+8з38850 0.0 1019156
05:00+7ссз399118 0.0 1020236
08:00+6ссв5889100 0.0 1023726
11:00+3св598796 0.1 1025679
14:00+7св5658100 0.0 10261237
17:00+7всв345160 0.0 10251288
20:00+4всв226410 0.0 102528
17 апреля, сб
сб1723:00+2св12687 0.0 102515
02:00+1с11701 0.0 102410
05:000сз22725 0.0 102415
08:00+3сз25600 0.0 1023260
11:00+7ссз46384 0.0 10221494
14:00+9ссз4637100 0.0 10212229
17:00+9ссз454088 0.0 10211906
20:00+6сз3854100 0.0 1021204
18 апреля, вс
вс1823:00+3зсз411615 0.0 1021371
02:00+2зсз5126536 0.0 1020739
05:00+1сз510745 0.0 1020770
08:00+1сз714564 0.0 10201702
11:00+2ссз7133898 0.0 10212332
14:00+2с81041100 0.0 10252448
17:000ссв6845100 0.0 10281895
20:00−1ссв484019 0.0 1031587